Weather History for Nashville, TN

Change the Weather History Date:

Monday, May 7, 2012

  Actual Average Record
Temperature  
Mean Temperature 72 °F 65 °F  
Max Temperature 82 °F 76 °F 89 °F (1952)
Min Temperature 62 °F 54 °F 37 °F (1944)
Degree Days  
Heating Degree Days 0 3  
Month to date heating degree days 0 22  
Since 1 July heating degree days 2819 3650  
Cooling Degree Days 7 3  
Month to date cooling degree days 74 16  
Year to date cooling degree days 205 61  
Growing Degree Days 22 (Base 50)    
Moisture  
Dew Point 61 °F    
Average Humidity 72    
Maximum Humidity 93    
Minimum Humidity 51    
Precipitation  
Precipitation 0.00 in 0.19 in 2.52 in (2003)
Month to date precipitation 0.39 1.32  
Year to date precipitation 14.30 17.12  
Snow  
Snow 0.00 in 0.00 in 0.00 in (2002)
Month to date snowfall 0.0 0.0  
Since 1 July snowfall 0.4 6.3  
Snow Depth 0.00 in    
Sea Level Pressure  
Sea Level Pressure 29.87 in    
Wind  
Wind Speed 6 mph (SSW)    
Max Wind Speed 14 mph    
Max Gust Speed 17 mph    
Visibility 10 miles    
Events      
T = Trace of Precipitation, MM = Missing Value Source: NWS Daily Summary

Daily Weather History Graph

Daily Weather History Graph

Search for Another Location

Airport:

Trip Planner

Search our weather history database for the weather conditions in past years. The results will help you decide how hot, cold, wet, or windy it might be!

Date:

Astronomy

May. 07, 2012 Rise Set
Actual Time 5:47 AM CDT 7:39 PM CDT
Civil Twilight 5:19 AM CDT 8:07 PM CDT
Nautical Twilight 4:45 AM CDT 8:41 PM CDT
Astronomical Twilight 4:09 AM CDT 9:18 PM CDT
Moon 9:48 PM CDT (5/7) 6:55 AM CDT (5/7)
Length of Visible Light 14h 48m
Length of Day
13h 52m
Waning Gibbous, 96% of the Moon is Illuminated
May 7
Waning Gibbous
May 12
Last Quarter
May 20
New
May 28
First Quarter
Jun 4
Full

Hourly Weather History & Observations

Time (CDT) Temp. Heat Index Dew Point Humidity Pressure Visibility Wind Dir Wind Speed Gust Speed Precip Events Conditions
12:53 AM 64.9 °F - 61.0 °F 87% 29.90 in 10.0 mi WNW 3.5 mph - N/A   Scattered Clouds
1:53 AM 64.9 °F - 61.0 °F 87% 29.89 in 10.0 mi SSW 3.5 mph - N/A   Mostly Cloudy
2:53 AM 63.0 °F - 61.0 °F 93% 29.88 in 10.0 mi SSW 3.5 mph - N/A   Clear
3:53 AM 63.0 °F - 60.1 °F 90% 29.88 in 10.0 mi Calm Calm - N/A   Mostly Cloudy
4:53 AM 63.0 °F - 59.0 °F 87% 29.88 in 10.0 mi Calm Calm - N/A   Scattered Clouds
5:53 AM 63.0 °F - 59.0 °F 87% 29.91 in 10.0 mi SSE 3.5 mph - N/A   Scattered Clouds
6:53 AM 64.0 °F - 61.0 °F 90% 29.90 in 9.0 mi South 5.8 mph - N/A   Scattered Clouds
7:53 AM 69.1 °F - 62.1 °F 78% 29.91 in 10.0 mi South 9.2 mph - N/A   Mostly Cloudy
8:53 AM 71.1 °F - 62.1 °F 73% 29.94 in 10.0 mi SW 4.6 mph - N/A   Mostly Cloudy
9:53 AM 75.0 °F - 60.1 °F 60% 29.94 in 10.0 mi South 6.9 mph - N/A   Scattered Clouds
10:53 AM 79.0 °F - 60.1 °F 52% 29.95 in 10.0 mi WSW 5.8 mph - N/A   Mostly Cloudy
11:53 AM 79.0 °F - 61.0 °F 54% 29.94 in 10.0 mi SW 9.2 mph - N/A   Mostly Cloudy
12:53 PM 81.0 °F 81.7 °F 61.0 °F 50% 29.91 in 10.0 mi West 10.4 mph - N/A   Mostly Cloudy
1:53 PM 81.0 °F 81.6 °F 60.1 °F 49% 29.87 in 10.0 mi South 11.5 mph - N/A   Mostly Cloudy
2:53 PM 80.1 °F 81.1 °F 61.0 °F 52% 29.82 in 10.0 mi SE 4.6 mph - N/A   Mostly Cloudy
3:53 PM 81.0 °F 81.7 °F 61.0 °F 50% 29.81 in 10.0 mi South 9.2 mph - N/A   Mostly Cloudy
4:53 PM 80.1 °F 80.9 °F 60.1 °F 50% 29.80 in 10.0 mi SW 8.1 mph - N/A   Mostly Cloudy
5:53 PM 78.1 °F - 60.1 °F 54% 29.80 in 10.0 mi SSW 8.1 mph - N/A   Mostly Cloudy
6:53 PM 77.0 °F - 61.0 °F 58% 29.81 in 10.0 mi SSW 9.2 mph - N/A   Mostly Cloudy
7:53 PM 75.0 °F - 61.0 °F 62% 29.81 in 10.0 mi SW 4.6 mph - N/A   Overcast
8:53 PM 73.9 °F - 63.0 °F 68% 29.83 in 10.0 mi WSW 5.8 mph - N/A   Overcast
9:53 PM 72.0 °F - 62.1 °F 71% 29.84 in 10.0 mi Variable 5.8 mph - N/A   Mostly Cloudy
10:53 PM 71.1 °F - 63.0 °F 75% 29.85 in 10.0 mi SSW 4.6 mph - N/A   Mostly Cloudy
11:53 PM 71.1 °F - 63.0 °F 75% 29.86 in 10.0 mi SW 3.5 mph - N/A   Overcast